RASSVET-3 15

Last updated on Sun Apr 12 2026 00:02:09 GMT+0000 (Coordinated Universal Time)

1 68374U 26061Q 26101.48268789 .00108862 30645-5 34124-3 0 9990 2 68374 82.2965 87.4418 0022141 4.2269 355.9185 15.90894384 2983
UTC large
Height (km)
Speed (km/s)
/
Latitude / Longitude
Inclination (degrees)
Orbital Period (minutes)
Azimuth
Elevation
Range (km)
Doppler Factor

Next 0 passes for location: London (51.5072 / 0.1276)

Sorry there are no passes over London.
RASSVET-3 15